User: anonymous   Login
Location: Владивосток
(43.1151°N, 131.8856°E)
Time: 19:10:12
(UTC+10:00)
Language:

CZ-6A DEB - Orbit

View from above orbital plane
View from above orbital plane
View from above satellite
View from above satellite

Ground track
Ground track

The orbit data is extracted from the following two-line orbital elements,

1 54550U 22151LA  25312.52201574  .00001937  00000-0  65620-3 0  9991
2 54550  98.6891 343.8559 0065151 245.4674 113.9711 14.36741422156334
Epoch (UTC): 08 November 2025 12:31:42
Eccentricity: 0.0065151
inclination: 98.6891°
perigee height: 723 km
apogee height: 816 km
right ascension of ascending node: 343.8559°
argument of perigee: 245.4674°
revolutions per day: 14.36741422
mean anomaly at epoch: 113.9711°
orbit number at epoch: 15633

The dashed part of the orbit path shows where the satellite is in the earth's shadow,  

DLR